Time,TemperatureF,DewpointF,PressureIn,WindDirection,WindDirectionDegrees,WindSpeedMPH,WindSpeedGustMPH,Humidity,HourlyPrecipIn,Conditions,Clouds,dailyrainin,SoftwareType,DateUTC
2013-02-25 00:07:00,39.5,25.0,29.92,East,89,2.0,-999.0,56,-99.99,,,0.00,weatherlink.com 1.10,2013-02-25 05:07:00,
2013-02-25 00:22:00,39.1,24.0,29.91,ENE,69,2.0,-999.0,56,-99.99,,,0.00,weatherlink.com 1.10,2013-02-25 05:22:00,
2013-02-25 00:37:00,38.9,25.0,29.91,East,99,2.0,-999.0,57,-99.99,,,0.00,weatherlink.com 1.10,2013-02-25 05:37:00,
2013-02-25 00:52:00,39.0,25.0,29.91,ESE,119,0.0,-999.0,58,-99.99,,,0.00,weatherlink.com 1.10,2013-02-25 05:52:00,
2013-02-25 01:07:00,38.8,25.0,29.92,SE,128,1.0,-999.0,57,-99.99,,,0.00,weatherlink.com 1.10,2013-02-25 06:07:00,
2013-02-25 01:22:00,38.7,24.0,29.92,East,94,1.0,-999.0,57,-99.99,,,0.00,weatherlink.com 1.10,2013-02-25 06:22:00,
2013-02-25 01:37:00,38.7,24.0,29.92,East,93,0.0,-999.0,57,-99.99,,,0.00,weatherlink.com 1.10,2013-02-25 06:37:00,
2013-02-25 01:52:00,39.0,24.0,29.91,ENE,74,0.0,-999.0,56,-99.99,,,0.00,weatherlink.com 1.10,2013-02-25 06:52:00,
2013-02-25 02:07:00,39.3,24.0,29.91,ENE,63,0.0,-999.0,55,-99.99,,,0.00,weatherlink.com 1.10,2013-02-25 07:07:00,
2013-02-25 02:22:00,39.0,25.0,29.91,East,86,0.0,-999.0,58,-99.99,,,0.00,weatherlink.com 1.10,2013-02-25 07:22:00,
2013-02-25 02:37:00,39.6,26.0,29.92,East,90,0.0,-999.0,59,-99.99,,,0.00,weatherlink.com 1.10,2013-02-25 07:37:00,
2013-02-25 02:52:00,40.0,26.0,29.92,East,89,0.0,-999.0,58,-99.99,,,0.00,weatherlink.com 1.10,2013-02-25 07:52:00,
2013-02-25 03:07:00,39.7,25.0,29.91,East,88,1.0,-999.0,56,-99.99,,,0.00,weatherlink.com 1.10,2013-02-25 08:07:00,
2013-02-25 03:22:00,39.3,25.0,29.90,SE,139,5.0,-999.0,56,-99.99,,,0.00,weatherlink.com 1.10,2013-02-25 08:22:00,
2013-02-25 03:37:00,39.1,24.0,29.90,East,90,0.0,-999.0,55,-99.99,,,0.00,weatherlink.com 1.10,2013-02-25 08:37:00,
2013-02-25 03:52:00,39.7,25.0,29.90,SE,132,0.0,-999.0,57,-99.99,,,0.00,weatherlink.com 1.10,2013-02-25 08:52:00,
2013-02-25 04:07:00,40.7,25.0,29.91,SSE,157,0.0,-999.0,53,-99.99,,,0.00,weatherlink.com 1.10,2013-02-25 09:07:00,
2013-02-25 04:22:00,41.2,25.0,29.91,SSE,158,0.0,-999.0,52,-99.99,,,0.00,weatherlink.com 1.10,2013-02-25 09:22:00,
2013-02-25 04:37:00,41.2,25.0,29.91,SSE,160,0.0,-999.0,52,-99.99,,,0.00,weatherlink.com 1.10,2013-02-25 09:37:00,
2013-02-25 04:52:00,40.5,23.0,29.92,SSE,159,0.0,-999.0,51,-99.99,,,0.00,weatherlink.com 1.10,2013-02-25 09:52:00,
2013-02-25 05:07:00,40.4,23.0,29.91,ESE,117,1.0,-999.0,51,-99.99,,,0.00,weatherlink.com 1.10,2013-02-25 10:07:00,
2013-02-25 05:22:00,40.5,23.0,29.92,SE,140,0.0,-999.0,51,-99.99,,,0.00,weatherlink.com 1.10,2013-02-25 10:22:00,
2013-02-25 05:37:00,40.2,24.0,29.92,SSE,150,2.0,-999.0,53,-99.99,,,0.00,weatherlink.com 1.10,2013-02-25 10:37:00,
2013-02-25 05:52:00,39.4,24.0,29.93,East,96,0.0,-999.0,54,-99.99,,,0.00,weatherlink.com 1.10,2013-02-25 10:52:00,
2013-02-25 06:07:00,38.7,22.0,29.94,NE,53,2.0,-999.0,52,-99.99,,,0.00,weatherlink.com 1.10,2013-02-25 11:07:00,
2013-02-25 06:22:00,38.5,22.0,29.94,East,84,0.0,-999.0,51,-99.99,,,0.00,weatherlink.com 1.10,2013-02-25 11:22:00,
2013-02-25 06:37:00,38.5,22.0,29.95,NE,55,0.0,-999.0,52,-99.99,,,0.00,weatherlink.com 1.10,2013-02-25 11:37:00,
2013-02-25 06:52:00,38.3,22.0,29.95,ENE,64,1.0,-999.0,53,-99.99,,,0.00,weatherlink.com 1.10,2013-02-25 11:52:00,
2013-02-25 07:07:00,37.3,22.0,29.96,NNE,21,2.0,-999.0,55,-99.99,,,0.00,weatherlink.com 1.10,2013-02-25 12:07:00,
2013-02-25 07:22:00,36.6,23.0,29.96,North,360,3.0,-999.0,58,-99.99,,,0.00,weatherlink.com 1.10,2013-02-25 12:22:00,
2013-02-25 07:37:00,36.4,23.0,29.96,NE,44,1.0,-999.0,59,-99.99,,,0.00,weatherlink.com 1.10,2013-02-25 12:37:00,
2013-02-25 07:52:00,36.2,24.0,29.97,NNE,27,0.0,-999.0,61,-99.99,,,0.00,weatherlink.com 1.10,2013-02-25 12:52:00,
2013-02-25 08:07:00,36.2,24.0,29.98,NNE,19,3.0,-999.0,61,-99.99,,,0.00,weatherlink.com 1.10,2013-02-25 13:07:00,
2013-02-25 08:22:00,36.7,25.0,29.98,ESE,117,4.0,-999.0,62,-99.99,,,0.00,weatherlink.com 1.10,2013-02-25 13:22:00,
2013-02-25 08:37:00,37.0,23.0,30.00,NNE,15,2.0,-999.0,58,-99.99,,,0.00,weatherlink.com 1.10,2013-02-25 13:37:00,
2013-02-25 08:52:00,37.4,24.0,30.02,NE,48,0.0,-999.0,58,-99.99,,,0.00,weatherlink.com 1.10,2013-02-25 13:52:00,
2013-02-25 09:07:00,37.6,25.0,30.02,NE,55,4.0,-999.0,60,-99.99,,,0.00,weatherlink.com 1.10,2013-02-25 14:07:00,
2013-02-25 09:22:00,37.7,25.0,30.02,NW,325,0.0,-999.0,60,-99.99,,,0.00,weatherlink.com 1.10,2013-02-25 14:22:00,
2013-02-25 09:37:00,37.5,26.0,30.02,ENE,64,2.0,-999.0,63,-99.99,,,0.00,weatherlink.com 1.10,2013-02-25 14:37:00,
2013-02-25 09:52:00,37.4,25.0,30.01,North,9,0.0,-999.0,62,-99.99,,,0.00,weatherlink.com 1.10,2013-02-25 14:52:00,
2013-02-25 10:07:00,36.7,25.0,30.01,NNW,334,4.0,-999.0,64,-99.99,,,0.00,weatherlink.com 1.10,2013-02-25 15:07:00,
2013-02-25 10:22:00,36.5,26.0,30.01,NNE,12,4.0,-999.0,65,-99.99,,,0.00,weatherlink.com 1.10,2013-02-25 15:22:00,
2013-02-25 10:37:00,36.3,25.0,30.01,NE,55,7.0,-999.0,63,-99.99,,,0.00,weatherlink.com 1.10,2013-02-25 15:37:00,
2013-02-25 10:52:00,36.5,25.0,30.01,North,360,3.0,-999.0,64,-99.99,,,0.00,weatherlink.com 1.10,2013-02-25 15:52:00,
2013-02-25 11:07:00,37.0,26.0,29.98,North,355,5.0,-999.0,65,-99.99,,,0.00,weatherlink.com 1.10,2013-02-25 16:07:00,
2013-02-25 11:22:00,38.1,26.0,29.98,NNE,15,6.0,-999.0,62,-99.99,,,0.00,weatherlink.com 1.10,2013-02-25 16:22:00,
2013-02-25 11:37:00,38.7,27.0,29.99,NE,50,6.0,-999.0,62,-99.99,,,0.00,weatherlink.com 1.10,2013-02-25 16:37:00,
2013-02-25 11:52:00,38.9,28.0,29.99,North,350,2.0,-999.0,64,-99.99,,,0.00,weatherlink.com 1.10,2013-02-25 16:52:00,
2013-02-25 12:07:00,39.8,28.0,30.00,North,11,3.0,-999.0,62,-99.99,,,0.00,weatherlink.com 1.10,2013-02-25 17:07:00,
2013-02-25 12:22:00,40.5,27.0,29.98,NE,51,3.0,-999.0,58,-99.99,,,0.00,weatherlink.com 1.10,2013-02-25 17:22:00,
2013-02-25 12:37:00,41.3,27.0,29.98,NNW,344,6.0,-999.0,57,-99.99,,,0.00,weatherlink.com 1.10,2013-02-25 17:37:00,
2013-02-25 12:52:00,40.7,26.0,29.97,NNW,338,6.0,-999.0,57,-99.99,,,0.00,weatherlink.com 1.10,2013-02-25 17:52:00,
2013-02-25 13:07:00,40.6,26.0,29.98,NE,55,4.0,-999.0,57,-99.99,,,0.00,weatherlink.com 1.10,2013-02-25 18:07:00,
2013-02-25 13:22:00,43.1,28.0,29.97,NNW,331,4.0,-999.0,55,-99.99,,,0.00,weatherlink.com 1.10,2013-02-25 18:22:00,
2013-02-25 13:37:00,44.6,28.0,29.97,NNW,336,6.0,-999.0,52,-99.99,,,0.00,weatherlink.com 1.10,2013-02-25 18:37:00,
2013-02-25 13:52:00,43.9,28.0,29.96,ENE,69,1.0,-999.0,53,-99.99,,,0.00,weatherlink.com 1.10,2013-02-25 18:52:00,
2013-02-25 14:07:00,43.1,27.0,29.96,NNW,340,2.0,-999.0,53,-99.99,,,0.00,weatherlink.com 1.10,2013-02-25 19:07:00,
2013-02-25 14:22:00,42.8,28.0,29.95,NW,322,5.0,-999.0,56,-99.99,,,0.00,weatherlink.com 1.10,2013-02-25 19:22:00,
2013-02-25 14:37:00,42.5,28.0,29.95,NW,322,8.0,-999.0,56,-99.99,,,0.00,weatherlink.com 1.10,2013-02-25 19:37:00,
2013-02-25 14:52:00,42.4,27.0,29.95,NNW,332,5.0,-999.0,55,-99.99,,,0.00,weatherlink.com 1.10,2013-02-25 19:52:00,
2013-02-25 15:07:00,42.1,27.0,29.94,NNW,348,4.0,-999.0,55,-99.99,,,0.00,weatherlink.com 1.10,2013-02-25 20:07:00,
2013-02-25 15:22:00,42.7,27.0,29.95,NNW,327,8.0,-999.0,54,-99.99,,,0.00,weatherlink.com 1.10,2013-02-25 20:22:00,
2013-02-25 15:37:00,43.2,27.0,29.95,NNW,342,2.0,-999.0,53,-99.99,,,0.00,weatherlink.com 1.10,2013-02-25 20:37:00,
2013-02-25 15:52:00,43.8,27.0,29.95,NNW,334,1.0,-999.0,53,-99.99,,,0.00,weatherlink.com 1.10,2013-02-25 20:52:00,
2013-02-25 16:07:00,44.1,28.0,29.94,SE,144,0.0,-999.0,54,-99.99,,,0.00,weatherlink.com 1.10,2013-02-25 21:07:00,
2013-02-25 16:22:00,44.7,28.0,29.94,NNW,339,4.0,-999.0,52,-99.99,,,0.00,weatherlink.com 1.10,2013-02-25 21:22:00,
2013-02-25 16:37:00,44.6,28.0,29.94,NNW,330,0.0,-999.0,53,-99.99,,,0.00,weatherlink.com 1.10,2013-02-25 21:37:00,
2013-02-25 16:52:00,44.5,28.0,29.94,NE,34,2.0,-999.0,53,-99.99,,,0.00,weatherlink.com 1.10,2013-02-25 21:52:00,
2013-02-25 17:07:00,44.3,27.0,29.93,ENE,68,2.0,-999.0,52,-99.99,,,0.00,weatherlink.com 1.10,2013-02-25 22:07:00,
2013-02-25 17:22:00,44.0,28.0,29.93,NNE,22,4.0,-999.0,53,-99.99,,,0.00,weatherlink.com 1.10,2013-02-25 22:22:00,
2013-02-25 17:37:00,43.4,29.0,29.93,NE,48,0.0,-999.0,57,-99.99,,,0.00,weatherlink.com 1.10,2013-02-25 22:37:00,
2013-02-25 17:52:00,43.1,28.0,29.93,ENE,71,0.0,-999.0,56,-99.99,,,0.00,weatherlink.com 1.10,2013-02-25 22:52:00,
2013-02-25 18:07:00,42.5,28.0,29.93,East,90,0.0,-999.0,56,-99.99,,,0.00,weatherlink.com 1.10,2013-02-25 23:07:00,
2013-02-25 18:22:00,41.9,27.0,29.93,East,91,0.0,-999.0,57,-99.99,,,0.00,weatherlink.com 1.10,2013-02-25 23:22:00,
2013-02-25 18:37:00,41.0,27.0,29.93,ESE,103,1.0,-999.0,58,-99.99,,,0.00,weatherlink.com 1.10,2013-02-25 23:37:00,
2013-02-25 18:52:00,40.1,27.0,29.93,SE,130,4.0,-999.0,61,-99.99,,,0.00,weatherlink.com 1.10,2013-02-25 23:52:00,
2013-02-25 19:07:00,39.3,27.0,29.94,ESE,109,5.0,-999.0,61,-99.99,,,0.00,weatherlink.com 1.10,2013-02-26 00:07:00,
2013-02-25 19:22:00,38.8,28.0,29.94,NE,42,3.0,-999.0,65,-99.99,,,0.00,weatherlink.com 1.10,2013-02-26 00:22:00,
2013-02-25 19:37:00,38.5,28.0,29.93,WNW,300,4.0,-999.0,67,-99.99,,,0.00,weatherlink.com 1.10,2013-02-26 00:37:00,
2013-02-25 19:52:00,38.4,28.0,29.93,East,82,8.0,-999.0,67,-99.99,,,0.00,weatherlink.com 1.10,2013-02-26 00:52:00,
2013-02-25 20:07:00,38.4,28.0,29.95,ENE,64,3.0,-999.0,67,-99.99,,,0.00,weatherlink.com 1.10,2013-02-26 01:07:00,
2013-02-25 20:22:00,38.2,28.0,29.95,NNE,28,2.0,-999.0,68,-99.99,,,0.00,weatherlink.com 1.10,2013-02-26 01:22:00,
2013-02-25 20:38:00,37.9,29.0,29.95,NE,48,2.0,-999.0,70,-99.99,,,0.00,weatherlink.com 1.10,2013-02-26 01:38:00,
2013-02-25 20:52:00,37.0,31.0,29.94,NNE,17,7.0,-999.0,80,-99.99,,,0.00,weatherlink.com 1.10,2013-02-26 01:52:00,
2013-02-25 21:07:00,35.6,31.0,29.93,NNW,340,5.0,-999.0,84,-99.99,,,0.00,weatherlink.com 1.10,2013-02-26 02:07:00,
2013-02-25 21:22:00,34.6,31.0,29.95,NNW,327,7.0,-999.0,86,-99.99,,,0.01,weatherlink.com 1.10,2013-02-26 02:22:00,
2013-02-25 21:37:00,34.3,31.0,29.95,NE,45,5.0,-999.0,88,-99.99,,,0.02,weatherlink.com 1.10,2013-02-26 02:37:00,
2013-02-25 21:52:00,33.7,31.0,29.93,North,355,6.0,-999.0,89,-99.99,,,0.03,weatherlink.com 1.10,2013-02-26 02:52:00,
2013-02-25 22:07:00,33.3,31.0,29.94,NNE,30,7.0,-999.0,90,-99.99,,,0.04,weatherlink.com 1.10,2013-02-26 03:07:00,
2013-02-25 22:23:00,33.5,31.0,29.93,NNE,13,4.0,-999.0,91,-99.99,,,0.04,weatherlink.com 1.10,2013-02-26 03:23:00,
2013-02-25 22:38:00,33.3,31.0,29.93,NNE,19,3.0,-999.0,92,-99.99,,,0.04,weatherlink.com 1.10,2013-02-26 03:38:00,
2013-02-25 22:52:00,33.1,31.0,29.93,North,355,12.0,-999.0,92,-99.99,,,0.06,weatherlink.com 1.10,2013-02-26 03:52:00,
2013-02-25 23:08:00,32.7,31.0,29.93,NNE,25,5.0,-999.0,92,-99.99,,,0.06,weatherlink.com 1.10,2013-02-26 04:08:00,
2013-02-25 23:23:00,32.6,31.0,29.91,NNW,329,8.0,-999.0,92,-99.99,,,0.06,weatherlink.com 1.10,2013-02-26 04:23:00,
2013-02-25 23:38:00,32.7,31.0,29.92,NNW,336,10.0,-999.0,93,-99.99,,,0.06,weatherlink.com 1.10,2013-02-26 04:38:00,
2013-02-25 23:53:00,32.4,31.0,29.91,NNW,345,5.0,-999.0,93,-99.99,,,0.07,weatherlink.com 1.10,2013-02-26 04:53:00,